Time,TemperatureF,DewpointF,PressureIn,WindDirection,WindDirectionDegrees,WindSpeedMPH,WindSpeedGustMPH,Humidity,HourlyPrecipIn,Conditions,Clouds,dailyrainin,SolarRadiationWatts/m^2,SoftwareType,DateUTC
2017-04-30 00:00:00,70.0,59.8,30.18,NE,55,0.0,10.0,70,0.00,,,0.00,0,Wunderground v.1.15,2017-04-30 04:00:00,
2017-04-30 00:30:00,69.6,58.2,30.18,NNE,25,3.0,6.0,67,0.00,,,0.00,0,Wunderground v.1.15,2017-04-30 04:30:00,
2017-04-30 01:00:00,68.8,57.4,30.18,ENE,58,1.0,9.0,67,0.00,,,0.00,0,Wunderground v.1.15,2017-04-30 05:00:00,
2017-04-30 01:30:00,68.2,56.4,30.19,NE,37,2.0,7.0,66,0.00,,,0.00,0,Wunderground v.1.15,2017-04-30 05:30:00,
2017-04-30 02:00:00,67.3,56.0,30.19,NE,49,0.0,7.0,67,0.00,,,0.00,0,Wunderground v.1.15,2017-04-30 06:00:00,
2017-04-30 02:30:00,66.4,55.9,30.19,NNE,18,0.0,7.0,69,0.00,,,0.00,0,Wunderground v.1.15,2017-04-30 06:30:00,
2017-04-30 03:00:00,65.8,55.3,30.19,NE,43,3.0,6.0,69,0.00,,,0.00,0,Wunderground v.1.15,2017-04-30 07:00:00,
2017-04-30 03:30:00,65.5,54.2,30.20,NNE,12,2.0,7.0,67,0.00,,,0.00,0,Wunderground v.1.15,2017-04-30 07:30:00,
2017-04-30 04:00:00,64.9,54.5,30.20,NNE,14,1.0,6.0,69,0.00,,,0.00,0,Wunderground v.1.15,2017-04-30 08:00:00,
2017-04-30 04:30:00,64.3,53.9,30.20,NNE,33,2.0,4.0,69,0.00,,,0.00,0,Wunderground v.1.15,2017-04-30 08:30:00,
2017-04-30 05:00:00,63.6,52.8,30.20,NE,46,0.0,7.0,68,0.00,,,0.00,0,Wunderground v.1.15,2017-04-30 09:00:00,
2017-04-30 05:30:00,63.2,53.6,30.21,ENE,66,0.0,5.0,71,0.00,,,0.00,0,Wunderground v.1.15,2017-04-30 09:30:00,
2017-04-30 06:00:00,63.3,53.3,30.21,NNE,33,0.0,3.0,70,0.00,,,0.00,0,Wunderground v.1.15,2017-04-30 10:00:00,
2017-04-30 06:30:00,63.2,51.6,30.23,ENE,66,1.0,4.0,66,0.00,,,0.00,0,Wunderground v.1.15,2017-04-30 10:30:00,
2017-04-30 07:00:00,63.0,48.9,30.24,ESE,107,0.0,7.0,60,0.00,,,0.00,0,Wunderground v.1.15,2017-04-30 11:00:00,
2017-04-30 07:30:00,63.1,47.1,30.23,NE,50,3.0,8.0,56,0.00,,,0.00,0,Wunderground v.1.15,2017-04-30 11:30:00,
2017-04-30 08:00:00,63.2,45.8,30.26,East,87,2.0,7.0,53,0.00,,,0.00,0,Wunderground v.1.15,2017-04-30 12:00:00,
2017-04-30 08:30:00,63.1,46.2,30.26,ENE,72,4.0,8.0,54,0.00,,,0.00,0,Wunderground v.1.15,2017-04-30 12:30:00,
2017-04-30 09:00:00,64.4,47.4,30.26,NE,47,6.0,9.0,54,0.00,,,0.00,0,Wunderground v.1.15,2017-04-30 13:00:00,
2017-04-30 09:30:00,65.7,48.6,30.26,SSE,158,3.0,7.0,54,0.00,,,0.00,0,Wunderground v.1.15,2017-04-30 13:30:00,
2017-04-30 10:00:00,67.0,50.3,30.25,East,91,5.0,10.0,55,0.00,,,0.00,0,Wunderground v.1.15,2017-04-30 14:00:00,
2017-04-30 10:30:00,69.1,51.2,30.24,SE,129,1.0,14.0,53,0.00,,,0.00,0,Wunderground v.1.15,2017-04-30 14:30:00,
2017-04-30 11:00:00,68.7,48.2,30.25,SE,146,6.0,15.0,48,0.00,,,0.00,0,Wunderground v.1.15,2017-04-30 15:00:00,
2017-04-30 11:30:00,68.3,46.1,30.26,South,180,3.0,14.0,45,0.00,,,0.00,0,Wunderground v.1.15,2017-04-30 15:30:00,
2017-04-30 12:00:00,68.6,46.4,30.25,South,173,7.0,13.0,45,0.00,,,0.00,0,Wunderground v.1.15,2017-04-30 16:00:00,
2017-04-30 12:30:00,71.1,47.5,30.24,East,95,11.0,11.0,43,0.00,,,0.00,0,Wunderground v.1.15,2017-04-30 16:30:00,
2017-04-30 13:00:00,71.2,46.3,30.23,ENE,73,3.0,14.0,41,0.00,,,0.00,0,Wunderground v.1.15,2017-04-30 17:00:00,
2017-04-30 13:30:00,70.9,46.0,30.22,SE,134,4.0,16.0,41,0.00,,,0.00,0,Wunderground v.1.15,2017-04-30 17:30:00,
2017-04-30 14:00:00,70.8,45.9,30.21,East,86,3.0,15.0,41,0.00,,,0.00,0,Wunderground v.1.15,2017-04-30 18:00:00,